This is the latest recevied weather packets stored in our database for station/object KI4NG. If no packets are shown the sender has not sent any weather packets the latest 10 day(s).
| Time | Temp. | Humidity | Pressure | Rain* | Wind** | Luminosity | Snow |
|---|---|---|---|---|---|---|---|
| 1788546598 | 33.89° C | 55% | 1019.1 hPa | 0 mm | - | 703 W/m² | - |
| 1788546294 | 32.78° C | 60% | 1019.1 hPa | 0 mm | - | 498 W/m² | - |
| 1788545993 | 32.78° C | 62% | 1019.1 hPa | 0 mm | - | 140 W/m² | - |
| 1788545689 | 33.33° C | 57% | 1019.3 hPa | 0 mm | - | 137 W/m² | - |
| 1788545384 | 33.33° C | 57% | 1019.3 hPa | 0 mm | - | 181 W/m² | - |
| 1788545079 | 33.33° C | 59% | 1019.3 hPa | 0 mm | - | 211 W/m² | - |
| 1788544778 | 33.89° C | 57% | 1019.6 hPa | 0 mm | - | 219 W/m² | - |
| 1788544477 | 35° C | 54% | 1019.3 hPa | 0 mm | - | 452 W/m² | - |
| 1788544172 | 35° C | 52% | 1019.3 hPa | 0 mm | - | 769 W/m² | - |
| 1788543867 | 34.44° C | 54% | 1019.4 hPa | 0 mm | - | 756 W/m² | - |
| 1788543564 | 33.89° C | 55% | 1019.5 hPa | 0 mm | - | 743 W/m² | - |
| 1788543259 | 33.89° C | 57% | 1019.6 hPa | 0 mm | - | 696 W/m² | - |
| 1788542954 | 33.89° C | 57% | 1019.6 hPa | 0 mm | - | 672 W/m² | - |
| 1788542654 | 32.78° C | 61% | 1019.8 hPa | 0 mm | - | 682 W/m² | - |
| 1788542349 | 32.78° C | 58% | 1019.6 hPa | 0 mm | - | 169 W/m² | - |
| 1788542044 | 33.33° C | 60% | 1019.9 hPa | 0 mm | - | 138 W/m² | - |
| 1788541741 | 33.89° C | 57% | 1019.7 hPa | 0 mm | - | 360 W/m² | - |
| 1788541436 | 35° C | 57% | 1019.9 hPa | 0 mm | - | 754 W/m² | - |
| 1788541130 | 35° C | 57% | 1019.9 hPa | 0 mm | - | 802 W/m² | - |
| 1788540829 | 33.89° C | 61% | 1020 hPa | 0 mm | - | 806 W/m² | - |
| 1788540524 | 34.44° C | 59% | 1020.2 hPa | 0 mm | - | 818 W/m² | - |
| 1788540224 | 33.89° C | 57% | 1020.1 hPa | 0 mm | - | 812 W/m² | - |
| 1788539921 | 33.33° C | 60% | 1020.3 hPa | 0 mm | - | 853 W/m² | - |
| 1788539620 | 32.78° C | 64% | 1020.3 hPa | 0 mm | - | 224 W/m² | - |
| 1788539319 | 33.33° C | 61% | 1020.3 hPa | 0 mm | - | 687 W/m² | - |
* Rain latest hour (hover to see other rain measurements)
** Current wind speed in m/s (hover to see current wind gust speed)